(327477) = 2005 YH58

Discovered at Kitt Peak on 2005-12-24 by Spacewatch.

Orbit

Orbit type: Main Belt

Note: WebGL enabled browser required.

epoch2022-01-21.0
epoch JD2459600.5
perihelion date2020-06-02.56292
perihelion JD2459003.06292
argument of perihelion (°)287.88934
ascending node (°)120.02363
inclination (°)7.87044
eccentricity0.0220146
perihelion distance (AU)2.8999398
Tisserand w.r.t. Jupiter3.2
ΔV w.r.t. Earth (km/sec)10.8
semimajor axis (AU)2.9652179
mean anomaly (°)115.32172
mean daily motion (°/day)0.19302740
aphelion distance (AU)3.030
period (years)5.11
P-vector [x]0.66249714
P-vector [y]0.72860903
P-vector [z]0.17385747
Q-vector [x]-0.73962231
Q-vector [y]0.59954684
Q-vector [z]0.30578167
absolute magnitude16.35
phase slope0.15
uncertainty0
referenceMPO 697668
observations used205
oppositions12
arc length (days)9111
first opposition used1997
last opposition used2022
residual rms (arc-secs)0.66
perturbers coarse indicatorM-v
perturbers precise indicator003Ek
first observation date used1997-05-10.0
last observation date used2022-04-20.0
computer namePan
JD of orbit computation2456966.790844
perihelion JD uncertainty (days)6.9523E-04
argument of perihelion uncertainty (°)1.4271E-04
ascending node uncertainty (°)4.1238E-05
inclination uncertainty (°)4.8656E-06
eccentricity uncertainty 6.7979E-08
perihelion distance uncertainty (AU)2.1999E-07
Minimum Orbit Intersection Distances (in AU)
for orbit epoch: 2458200.5, reference: MPO408357
Mercury2.54293
Venus2.1859
Earth1.92503
Mars1.30798
Jupiter2.06277
Saturn6.16237
Uranus15.2094
Neptune26.972

Observations

209 total observations over interval: 1997 05 10.26079 – 2022 04 20.289938
These data are available for download (format description).

Date (UT) J2000 RA J2000 Dec Magn Location Ref
1997 05 10.26079 14 36 51.41 -03 17 50.7 20.9 V 691 – Steward Observatory, Kitt Peak-Spacewatch MPS 208979
1997 05 10.30223 14 36 49.42 -03 17 43.9 21.1 V 691 – Steward Observatory, Kitt Peak-Spacewatch MPS 208979
1997 05 10.32410 14 36 48.73 -03 17 44.7 20.2 V 691 – Steward Observatory, Kitt Peak-Spacewatch MPS 208979
2001 02 03.25003 08 29 32.41 +20 36 50.9 20.8 V 691 – Steward Observatory, Kitt Peak-Spacewatch MPS 208979
2001 02 03.27279 08 29 31.22 +20 36 57.0 20.8 V 691 – Steward Observatory, Kitt Peak-Spacewatch MPS 208979
2001 02 03.29545 08 29 30.09 +20 37 05.9 20.9 V 691 – Steward Observatory, Kitt Peak-Spacewatch MPS 208979
2005 12 24.41038 08 16 00.02 +18 13 04.9   691 – Steward Observatory, Kitt Peak-Spacewatch MPS 156733
2005 12 24.42770 08 15 59.37 +18 13 09.2   691 – Steward Observatory, Kitt Peak-Spacewatch MPS 156733
2005 12 24.44503 08 15 58.74 +18 13 13.2   691 – Steward Observatory, Kitt Peak-Spacewatch MPS 156733
2005 12 28.41200 08 13 27.00 +18 29 37.0 21.0 V 691 – Steward Observatory, Kitt Peak-Spacewatch MPS 156733
2005 12 28.42930 08 13 26.23 +18 29 41.1 20.9 V 691 – Steward Observatory, Kitt Peak-Spacewatch MPS 156733
2005 12 28.44660 08 13 25.53 +18 29 45.7 21.0 V 691 – Steward Observatory, Kitt Peak-Spacewatch MPS 156733
2006 01 06.33729 08 06 45.36 +19 10 15.7 20.9 V G96 – Mt. Lemmon Survey MPS 159096
2006 01 06.34308 08 06 45.10 +19 10 16.8 21.0 V G96 – Mt. Lemmon Survey MPS 159096
2006 01 06.34889 08 06 44.85 +19 10 19.3 20.8 V G96 – Mt. Lemmon Survey MPS 159096
2006 01 06.35469 08 06 44.53 +19 10 20.7 21.1 V G96 – Mt. Lemmon Survey MPS 159096
2006 01 09.31965 08 04 17.12 +19 24 38.7 20.9 V 691 – Steward Observatory, Kitt Peak-Spacewatch MPS 159096
2006 01 09.32208 08 04 16.95 +19 24 39.2 20.8 V 691 – Steward Observatory, Kitt Peak-Spacewatch MPS 159096
2006 01 09.33694 08 04 16.18 +19 24 43.5 20.2 V 691 – Steward Observatory, Kitt Peak-Spacewatch MPS 159096
2006 01 09.33937 08 04 16.06 +19 24 44.3 20.5 V 691 – Steward Observatory, Kitt Peak-Spacewatch MPS 159096
2006 01 09.35421 08 04 15.30 +19 24 48.4 20.7 V 691 – Steward Observatory, Kitt Peak-Spacewatch MPS 159096
2006 01 09.35664 08 04 15.19 +19 24 48.8 21.0 V 691 – Steward Observatory, Kitt Peak-Spacewatch MPS 159096
2006 01 10.33329 08 03 25.52 +19 29 34.4 20.3 V G96 – Mt. Lemmon Survey MPS 159939
2006 01 10.33865 08 03 25.23 +19 29 35.5 20.4 V G96 – Mt. Lemmon Survey MPS 159939
2006 01 10.34403 08 03 24.94 +19 29 37.5 20.5 V G96 – Mt. Lemmon Survey MPS 159939
2006 01 10.34939 08 03 24.69 +19 29 38.9 20.4 V G96 – Mt. Lemmon Survey MPS 159939
2007 03 19.40441 13 53 22.63 +00 04 26.5 20.6 V G96 – Mt. Lemmon Survey MPS 208979
2007 03 19.40889 13 53 22.52 +00 04 28.0 20.9 V G96 – Mt. Lemmon Survey MPS 208979
2007 03 19.41323 13 53 22.34 +00 04 29.4 21.0 V G96 – Mt. Lemmon Survey MPS 208979
2007 03 19.41771 13 53 22.23 +00 04 31.1 20.9 V G96 – Mt. Lemmon Survey MPS 208979
2007 04 26.17131 13 27 11.91 +03 15 02.2 21.3 V G96 – Mt. Lemmon Survey MPS 208979
2007 04 26.17685 13 27 11.62 +03 15 03.6 20.5 V G96 – Mt. Lemmon Survey MPS 208979
2007 04 26.18245 13 27 11.41 +03 15 04.4 20.8 V G96 – Mt. Lemmon Survey MPS 208979
2007 04 26.18798 13 27 11.12 +03 15 05.7 21.3 V G96 – Mt. Lemmon Survey MPS 208979
2007 04 26.24632 13 27 08.56 +03 15 17.3 20.2 V G96 – Mt. Lemmon Survey MPS 208979
2007 04 26.25337 13 27 08.20 +03 15 18.7 20.1 V G96 – Mt. Lemmon Survey MPS 208979
2007 04 26.26058 13 27 07.92 +03 15 20.1 20.3 V G96 – Mt. Lemmon Survey MPS 208979
2007 04 26.26770 13 27 07.59 +03 15 21.7 20.4 V G96 – Mt. Lemmon Survey MPS 208979
2007 04 26.27925 13 27 07.09 +03 15 24.1 20.5 V G96 – Mt. Lemmon Survey MPS 208979
2007 04 26.28589 13 27 06.80 +03 15 25.1 20.5 V G96 – Mt. Lemmon Survey MPS 208979
2007 04 26.29254 13 27 06.48 +03 15 26.6 20.2 V G96 – Mt. Lemmon Survey MPS 208979
2007 04 26.29903 13 27 06.19 +03 15 28.1 20.1 V G96 – Mt. Lemmon Survey MPS 208979
2007 04 26.31098 13 27 05.65 +03 15 30.2 20.2 V G96 – Mt. Lemmon Survey MPS 208979
2007 04 26.31907 13 27 05.32 +03 15 31.7 20.3 V G96 – Mt. Lemmon Survey MPS 208979
2007 04 26.32716 13 27 04.93 +03 15 33.3 20.1 V G96 – Mt. Lemmon Survey MPS 208979
2007 04 26.33516 13 27 04.60 +03 15 34.4 20.2 V G96 – Mt. Lemmon Survey MPS 208979
2007 04 26.34935 13 27 03.96 +03 15 37.6 20.6 V G96 – Mt. Lemmon Survey MPS 208979
2007 04 26.35504 13 27 03.70 +03 15 38.8 20.2 V G96 – Mt. Lemmon Survey MPS 208979
2007 04 26.36075 13 27 03.45 +03 15 40.0 20.3 V G96 – Mt. Lemmon Survey MPS 208979
2007 04 26.36648 13 27 03.16 +03 15 41.0 20.2 V G96 – Mt. Lemmon Survey MPS 208979
2007 04 26.37355 13 27 02.88 +03 15 42.3 20.2 V G96 – Mt. Lemmon Survey MPS 208979
2007 04 26.37897 13 27 02.66 +03 15 43.4 20.3 V G96 – Mt. Lemmon Survey MPS 208979
2007 04 26.38440 13 27 02.41 +03 15 44.5 20.1 V G96 – Mt. Lemmon Survey MPS 208979
2007 04 26.38979 13 27 02.16 +03 15 45.6 20.5 V G96 – Mt. Lemmon Survey MPS 208979
2007 04 26.39677 13 27 01.87 +03 15 47.3 20.7 V G96 – Mt. Lemmon Survey MPS 208979
2007 04 26.40324 13 27 01.58 +03 15 48.3 20.4 V G96 – Mt. Lemmon Survey MPS 208979
2007 04 26.40970 13 27 01.29 +03 15 49.5 20.4 V G96 – Mt. Lemmon Survey MPS 208979
2007 04 26.41618 13 27 01.00 +03 15 50.7 20.4 V G96 – Mt. Lemmon Survey MPS 208979
2010 11 07.49002 07 40 06.24 +17 22 46.0 21.7 V G96 – Mt. Lemmon Survey MPS 355382
2010 11 07.49586 07 40 06.34 +17 22 45.9 21.8 V G96 – Mt. Lemmon Survey MPS 355382
2010 11 07.50165 07 40 06.45 +17 22 46.3 22.0 V G96 – Mt. Lemmon Survey MPS 355382
2010 11 07.50748 07 40 06.56 +17 22 46.2 21.6 V G96 – Mt. Lemmon Survey MPS 355382
2010 12 14.37513 07 34 20.58 +18 11 25.1 21.1 V 691 – Steward Observatory, Kitt Peak-Spacewatch MPS 358946
2010 12 14.39279 07 34 19.95 +18 11 28.2 20.8 V 691 – Steward Observatory, Kitt Peak-Spacewatch MPS 358946
2010 12 14.41166 07 34 19.26 +18 11 31.5 21.0 V 691 – Steward Observatory, Kitt Peak-Spacewatch MPS 358946
2011 01 02.29252 07 19 50.08 +19 17 44.5 20.9 V G96 – Mt. Lemmon Survey MPS 363357
2011 01 02.30293 07 19 49.51 +19 17 47.2 20.4 V G96 – Mt. Lemmon Survey MPS 363357
2011 01 02.31337 07 19 48.93 +19 17 49.4 20.5 V G96 – Mt. Lemmon Survey MPS 363357
2012 03 24.45754 13 11 23.74 +04 21 05.8 20.3 V G96 – Mt. Lemmon Survey MPS 418470
2012 03 24.46054 13 11 23.60 +04 21 07.5 20.6 V G96 – Mt. Lemmon Survey MPS 418470
2012 03 24.46366 13 11 23.53 +04 21 08.6 20.6 V G96 – Mt. Lemmon Survey MPS 418470
2012 03 24.46669 13 11 23.35 +04 21 09.8 21.1 V G96 – Mt. Lemmon Survey MPS 418470
2012 04 15.34702 12 55 12.206 +06 16 43.07 21.1 g F51 – Pan-STARRS 1, Haleakala MPS 420830
2012 04 15.35847 12 55 11.699 +06 16 45.67 21.2 g F51 – Pan-STARRS 1, Haleakala MPS 420830
2012 04 15.49935 12 55 05.388 +06 17 19.61 20.7 r F51 – Pan-STARRS 1, Haleakala MPS 420830
2012 04 15.51021 12 55 04.902 +06 17 22.18 20.5 r F51 – Pan-STARRS 1, Haleakala MPS 420830
2012 04 21.43609 12 50 58.791 +06 38 18.29 21.0 w F51 – Pan-STARRS 1, Haleakala MPS 421876
2012 04 21.45044 12 50 58.206 +06 38 20.92 20.9 w F51 – Pan-STARRS 1, Haleakala MPS 421876
2012 04 21.46496 12 50 57.601 +06 38 23.61 21.0 w F51 – Pan-STARRS 1, Haleakala MPS 421876
2012 04 21.47948 12 50 57.004 +06 38 26.24 20.9 w F51 – Pan-STARRS 1, Haleakala MPS 421876
2014 07 31.55070 00 58 52.006 -02 21 35.17 21.4 w F51 – Pan-STARRS 1, Haleakala MPS 525379
2014 07 31.56265 00 58 52.206 -02 21 36.66 21.3 w F51 – Pan-STARRS 1, Haleakala MPS 525379
2014 07 31.57463 00 58 52.399 -02 21 38.17 21.3 w F51 – Pan-STARRS 1, Haleakala MPS 525379
2014 07 31.58663 00 58 52.588 -02 21 39.83 21.4 w F51 – Pan-STARRS 1, Haleakala MPS 525379
2014 08 30.50411 00 58 18.960 -04 23 27.89 20.9 w F51 – Pan-STARRS 1, Haleakala MPS 531346
2014 08 30.51515 00 58 18.713 -04 23 31.81 21.0 w F51 – Pan-STARRS 1, Haleakala MPS 531346
2014 08 30.52623 00 58 18.469 -04 23 35.71 21.1 w F51 – Pan-STARRS 1, Haleakala MPS 531346
2014 09 20.43910 00 47 08.750 -06 36 07.95 20.5 w F51 – Pan-STARRS 1, Haleakala MPS 536332
2014 09 20.45126 00 47 08.229 -06 36 12.58 20.5 w F51 – Pan-STARRS 1, Haleakala MPS 536332
2014 09 20.46350 00 47 07.699 -06 36 17.38 20.5 w F51 – Pan-STARRS 1, Haleakala MPS 536332
2014 09 20.47572 00 47 07.173 -06 36 22.12 20.6 w F51 – Pan-STARRS 1, Haleakala MPS 536332
